Simultaneous Nadir Overpasses (SNOs) Predictions

Prediction of SNOs between METOP-C and LANDSAT-8 Satellite Orbit:

Table of predicted SNOs for the next 14.0 days since TLE Epoch: 6/14/2024
Index Date (METOP-C) Time (METOP-C) Lat,Lon (METOP-C) SZA (METOP-C ) Date (LANDSAT-8) Time (LANDSAT-8) Lat,Lon (LANDSAT-8) SZA (LANDSAT-8 ) Distance(km) Time Diff (sec)
1 06/16/2024 22:45:13 81.10,-121.72 59.83 06/16/2024 22:45:15 81.10,-121.72 59.84 0.21 2
2 06/16/2024 23:35:52 -81.12, 46.36 120.07 06/16/2024 23:34:41 -81.12, 46.26 120.12 1.66 71
3 06/19/2024 17:28:59 -81.08, 136.85 120.30 06/19/2024 17:30:08 -81.07, 136.67 120.29 3.29 69
4 06/19/2024 18:19:38 81.10, -55.26 59.78 06/19/2024 18:19:33 81.10, -55.28 59.77 0.29 5
5 06/22/2024 13:03:23 -81.08,-156.70 120.30 06/22/2024 13:04:24 -81.09,-156.73 120.28 0.58 61
6 06/22/2024 13:54:03 81.09, 10.75 59.72 06/22/2024 13:53:50 81.09, 10.94 59.73 3.32 13
7 06/25/2024 08:37:48 -81.08, -90.32 120.26 06/25/2024 08:38:41 -81.08, -90.34 120.24 0.32 53
8 06/25/2024 09:28:26 81.11, 77.81 59.85 06/25/2024 09:28:06 81.11, 77.67 59.82 2.53 20
9 06/28/2024 04:12:12 -81.09, -23.65 120.13 06/28/2024 04:12:57 -81.09, -23.82 120.13 2.86 45



Historial Predications of SNOs between METOP-C and LANDSAT-8
